Terminal Aerodrome Forecast
Issued by NWS Billings, MT

Home | Current Version | Previous Version | Graphics & Text | Print | Product List | Glossary On
Versions: 1 2 3 4 5 6 7 8 9 10 11 12 13 14 15 16 17 18 19 20 21 22 23 24 25 26 27 28 29 30 31 32 33 34 35 36 37 38 39 40 41 42 43 44 45
000
FTUS45 KBYZ 311731 AAB
TAFMLS
TAF AMD
KMLS 311731Z 3118/0112 05012KT P6SM OVC012
     FM312000 05012KT 2SM -SN BR BKN005 OVC010
     FM010300 04010KT 6SM -SN BKN020 OVC030
     FM010900 02006KT P6SM -SN BKN020 OVC030=

USA.gov is the U.S. government's official web portal to all federal, state and local government web resources and services.